Theta_e
330 331 332 331 330 328 329 327 326 325 325 325 325 327 327 328 327 325 327 328 330 328 327 325 329 328 329 330 328 328 329 329 328 328 326 325 324 324 326 325 324 324 324
330 331 331 331 330 326 329 328 325 326 325 325 326 326 326 328 329 329 329 328 329 328 326 327 329 329 328 329 330 327 326 327 328 327 325 326 326 325 326 325 326 326 324
329 330 331 331 330 329 330 328 327 325 325 325 327 326 328 330 329 329 329 330 329 329 329 330 330 330 330 328 329 329 325 326 328 327 326 326 326 324 325 325 323 319 316
328 329 330 330 331 330 329 328 327 326 326 328 327 328 328 329 330 328 328 329 329 329 329 330 329 330 329 329 330 328 328 328 327 327 326 325 324 325 325 321 317 314 309
327 329 329 330 330 329 329 328 328 328 329 329 328 328 329 329 329 330 327 329 329 329 329 329 329 329 328 329 330 328 328 328 327 326 325 324 324 323 322 322 320 315 313
327 328 328 328 328 329 329 329 329 329 328 328 328 328 328 327 323 323 327 330 330 329 329 328 328 328 328 328 329 329 328 326 326 325 325 322 321 321 320 322 312 314 319
327 327 328 328 329 329 329 329 329 329 329 328 328 328 330 323 323 323 324 329 330 329 328 328 328 327 327 328 327 328 328 327 326 325 324 323 322 321 321 322 319 318 320
326 327 327 328 329 330 330 329 329 329 329 327 328 329 330 323 323 325 325 327 329 329 328 328 328 328 326 327 328 327 327 327 326 326 325 324 325 325 325 322 320 324 322
324 327 327 328 328 328 328 330 330 330 330 329 328 328 328 323 326 326 327 328 328 329 328 329 328 328 327 327 327 326 325 326 326 325 323 323 324 324 325 322 324 323 323
323 326 327 328 328 328 329 324 328 329 329 329 330 330 326 325 326 327 327 328 328 328 328 326 326 326 326 326 328 328 327 326 326 326 325 325 325 321 312 319 322 324 325
322 325 327 328 329 330 330 324 325 328 327 329 331 328 326 325 326 326 327 329 328 329 329 327 325 325 326 326 326 328 328 327 324 325 324 325 322 316 314 324 324 327 325
321 323 325 327 327 329 330 327 327 325 328 330 330 331 328 326 326 325 326 328 328 329 329 327 326 326 324 323 321 321 321 321 326 324 323 322 323 323 324 322 323 326 325
322 322 324 326 327 328 328 328 326 325 327 329 330 330 330 330 326 326 326 325 327 329 329 327 326 324 324 325 326 326 325 327 327 327 327 327 326 326 323 323 322 320 319
322 322 323 326 328 328 328 327 325 324 323 325 328 329 329 330 328 326 325 324 325 327 326 325 326 323 326 325 321 320 322 325 327 326 322 321 319 318 317 317 318 318 318
323 323 323 323 326 328 328 328 327 325 323 322 323 325 328 329 329 328 327 327 327 327 325 324 324 325 326 326 325 323 323 321 323 323 322 319 319 320 319 319 318 318 316
324 323 322 321 322 327 329 329 328 327 325 322 320 322 322 322 323 322 321 323 326 326 326 326 326 326 325 325 325 324 322 321 322 323 323 320 320 319 318 318 317 318 316
323 323 322 320 321 321 324 329 328 328 327 326 324 320 320 320 319 318 318 318 317 318 324 324 324 324 325 324 323 323 322 322 323 322 322 321 320 319 317 317 318 318 316
323 323 323 321 320 320 322 323 324 325 325 324 322 324 324 322 317 318 320 321 320 320 321 321 321 321 320 320 320 320 321 321 322 322 322 322 321 320 317 317 318 317 313
325 322 322 322 321 320 320 322 322 322 322 323 323 322 324 325 322 323 320 320 322 322 321 321 322 320 321 320 318 317 318 319 321 322 322 322 321 319 317 317 317 315 312
326 324 322 321 321 321 320 321 321 321 322 323 324 324 322 323 325 321 322 324 322 321 320 320 321 321 322 321 321 320 320 319 319 320 321 321 320 319 318 317 316 313 314
328 325 323 322 321 321 320 321 321 321 321 321 322 324 324 319 323 324 322 320 323 323 323 321 320 319 318 319 320 320 320 320 320 319 319 320 320 319 318 317 315 313 313
329 327 324 323 322 321 321 320 321 321 321 322 322 322 322 320 321 323 324 324 321 321 322 322 321 320 319 318 317 318 319 319 319 320 319 319 319 318 317 316 313 312 308
329 327 326 324 323 323 322 321 321 321 321 321 321 321 322 321 321 322 323 324 324 322 320 320 321 320 319 318 317 317 317 317 317 319 319 319 318 317 316 313 312 312 310
329 328 327 325 325 324 324 323 323 322 321 321 321 321 322 322 321 321 322 324 324 323 322 320 320 320 320 319 320 320 320 319 318 316 317 317 317 316 314 311 311 308 307
329 329 328 327 326 326 326 326 325 324 324 323 323 323 323 323 324 322 323 323 324 323 323 322 320 320 319 321 321 321 319 318 319 319 319 318 317 314 312 311 311 309 309
328 329 329 328 328 327 327 327 327 327 327 327 326 326 326 326 325 325 324 324 324 324 323 323 322 319 318 317 317 319 319 320 320 320 319 318 317 313 311 309 308 309 307
Wind_Speed
13 11 9 6 6 5 5 7 8 9 9 6 5 3 2 2 3 2 4 4 5 7 9 9 6 8 9 7 7 12 16 16 26 43 50 46 44 42 37 36 32 28 24
12 10 7 5 5 4 6 7 8 8 8 6 5 4 3 2 1 2 4 8 9 7 7 8 9 10 9 12 13 18 16 19 36 40 52 45 44 37 34 30 26 24 22
12 9 7 4 4 5 7 7 9 8 8 7 6 6 5 4 3 5 6 9 10 9 10 8 13 13 11 14 15 21 26 27 35 48 47 42 40 33 30 27 27 23 20
11 9 7 5 5 7 9 9 9 8 8 8 8 7 7 6 5 7 9 11 12 10 11 10 13 14 11 17 22 25 30 32 34 47 46 41 38 34 32 29 25 22 23
12 10 8 6 7 10 11 10 9 10 10 9 11 10 8 7 7 7 12 10 15 17 14 14 13 13 11 17 23 25 30 35 37 46 43 44 38 36 28 23 20 20 18
14 12 10 9 11 12 13 12 11 9 10 10 10 8 9 7 11 9 8 10 10 12 14 14 15 18 15 16 23 24 27 37 39 46 46 43 41 34 27 21 25 21 17
15 14 12 12 12 12 13 12 11 11 11 10 9 9 9 10 8 5 8 9 9 10 13 17 22 23 22 21 22 23 23 30 33 44 40 39 36 29 25 21 19 17 15
16 15 14 14 13 12 12 12 11 10 9 8 9 10 9 10 8 6 7 10 13 10 14 15 20 19 19 23 26 24 22 22 28 34 31 35 27 24 23 20 20 16 17
18 17 16 15 13 13 11 11 11 11 9 7 7 10 10 12 9 9 9 12 13 15 14 14 15 19 24 26 24 28 28 26 26 26 25 27 23 21 21 21 19 18 18
19 19 18 15 15 13 11 10 11 11 9 7 7 9 10 12 11 9 11 15 15 17 17 19 22 28 25 22 22 23 24 21 20 22 24 22 21 19 20 17 18 14 14
19 19 19 17 15 12 11 9 10 11 10 9 9 10 11 12 13 10 12 15 18 17 18 20 26 23 20 18 19 15 18 20 21 19 22 23 24 22 21 16 17 11 12
21 20 20 18 15 14 12 11 9 10 10 11 11 12 11 15 15 15 15 14 17 17 18 20 22 21 19 21 21 21 21 22 18 17 18 19 19 17 15 17 19 14 17
22 21 20 19 16 16 15 14 11 11 10 12 12 12 12 12 15 15 14 15 21 15 17 22 22 21 20 20 20 20 19 16 17 16 15 15 15 14 18 18 18 17 14
25 23 21 21 19 17 15 14 12 12 12 12 13 13 13 13 14 17 18 20 18 16 20 20 23 20 19 18 20 19 13 14 15 14 14 14 16 16 16 16 17 16 14
26 24 23 22 22 20 18 16 14 13 12 13 13 13 15 15 15 16 17 17 16 15 20 21 21 17 15 16 14 14 12 15 13 13 14 15 15 15 15 16 15 14 14
28 27 26 24 23 21 20 18 19 16 15 14 16 14 13 13 16 16 16 17 18 19 18 17 17 18 18 18 18 16 14 15 13 13 14 14 15 15 14 15 14 13 11
32 29 26 25 23 23 22 20 20 21 18 16 14 14 17 17 16 17 18 17 16 17 16 16 17 18 19 20 20 20 19 17 16 15 15 15 15 14 17 15 15 14 12
33 31 28 28 25 24 23 21 20 20 22 22 22 19 17 14 16 19 19 20 21 21 17 17 18 19 20 20 21 21 20 18 18 17 17 17 17 17 17 16 16 16 18
32 30 29 25 25 24 23 22 21 20 19 19 19 25 23 21 20 20 20 22 20 21 21 19 19 19 20 21 21 21 22 22 21 20 20 20 19 19 18 18 19 22 26
32 31 30 27 26 26 26 24 23 23 21 21 21 19 24 25 26 26 28 28 23 22 22 22 22 21 21 21 22 23 24 25 25 23 23 23 22 22 20 21 22 29 27
34 33 34 29 27 27 28 27 26 25 24 24 23 22 24 26 25 24 25 29 28 25 24 24 24 24 25 24 23 23 24 25 26 26 25 25 25 26 27 30 32 28 27
34 33 35 35 29 28 29 29 28 27 27 26 24 23 27 26 23 24 24 24 25 27 26 25 25 26 26 26 26 26 27 27 27 26 26 26 26 26 26 31 34 28 29
35 34 32 36 34 31 30 28 29 29 28 27 26 26 29 28 26 25 24 24 24 25 26 27 27 26 26 26 27 27 28 28 27 27 26 26 27 27 28 36 36 35 39
35 35 35 33 37 33 31 32 31 31 30 29 29 29 28 29 30 28 27 25 24 24 24 26 27 27 26 26 26 26 26 25 25 26 29 30 30 32 32 33 35 33 39
34 34 35 33 33 37 32 31 30 31 30 31 31 30 30 29 28 30 28 28 27 26 26 26 27 29 30 30 28 28 28 30 30 29 28 30 30 34 37 39 41 43 40
29 30 29 29 27 27 27 24 25 26 29 29 29 29 29 29 29 27 26 26 27 28 28 26 28 28 28 29 31 31 33 33 32 33 34 31 30 30 32 36 40 39 43
Wind_Direction
167 169 172 165 161 151 152 154 166 173 176 172 172 176 177 200 207 201 203 176 173 175 183 193 181 174 161 166 167 145 132 151 129 138 148 144 143 149 153 148 145 146 148
167 169 176 172 181 173 158 156 168 176 172 172 161 166 167 185 164 193 100 155 154 163 178 158 158 155 132 139 141 148 148 119 138 126 142 151 150 145 139 138 136 139 143
166 165 169 172 174 177 156 156 165 172 171 161 151 148 151 133 111 89 99 114 135 134 128 121 135 150 140 143 146 137 133 141 152 142 147 149 142 144 140 139 141 134 141
163 160 160 154 161 155 152 146 154 161 156 153 144 139 125 112 97 89 102 103 122 134 126 127 136 145 140 138 142 136 136 149 144 138 145 146 148 149 151 142 136 147 146
158 154 146 142 142 145 144 141 150 153 151 146 144 137 125 111 111 96 101 104 114 113 113 117 125 141 147 147 147 151 150 151 154 149 146 146 148 151 144 139 137 143 143
157 152 141 138 140 142 141 139 138 137 136 143 143 144 131 136 119 112 103 106 112 112 114 117 120 130 129 148 152 153 157 157 157 157 158 155 153 156 153 147 147 149 140
159 156 148 143 144 140 140 139 142 144 143 144 148 149 145 161 152 126 128 126 119 122 116 114 124 116 112 123 154 154 156 167 167 162 160 163 163 162 157 154 152 149 159
164 162 156 150 144 140 141 145 146 149 146 153 155 154 152 162 153 150 147 139 132 131 120 121 123 126 122 128 133 131 140 156 165 165 163 165 163 165 163 160 153 161 157
168 168 163 163 155 145 140 143 151 148 141 131 143 144 142 151 138 133 126 141 135 135 122 121 128 139 126 133 135 133 134 134 144 155 160 160 163 164 160 160 160 153 156
173 173 171 165 162 154 143 133 148 153 148 138 127 134 149 158 148 138 125 142 136 135 127 123 123 124 125 127 131 133 135 138 146 155 160 167 169 169 166 156 159 164 171
175 174 175 174 173 170 159 149 147 149 156 145 137 134 140 149 151 130 133 145 145 131 127 126 129 126 124 133 138 139 147 145 142 143 156 163 167 169 166 162 171 185 186
177 176 178 180 178 183 174 166 153 158 153 147 139 133 138 139 142 138 131 144 144 147 138 144 135 137 136 138 138 142 145 145 142 143 146 153 160 165 173 181 185 180 191
181 181 181 181 178 182 176 173 163 159 159 156 147 148 145 147 145 145 136 143 145 134 148 157 149 145 144 146 149 154 158 152 153 151 153 159 167 175 192 194 197 202 207
182 184 184 183 183 183 184 183 177 173 174 166 165 160 157 153 155 148 147 150 150 151 155 160 160 155 147 158 153 150 145 152 159 162 163 166 179 182 185 194 200 204 206
185 186 186 187 189 190 187 190 188 187 183 181 176 174 174 173 178 172 166 167 164 168 165 163 168 171 172 171 174 173 168 168 163 172 175 179 177 177 186 192 195 192 194
187 190 191 190 194 196 195 196 191 192 189 185 191 182 186 188 195 181 179 179 181 182 176 181 184 189 191 193 192 193 192 191 188 187 189 188 189 188 188 189 191 188 195
192 193 194 191 196 195 199 201 201 203 200 198 193 178 187 203 196 189 187 186 186 187 187 195 197 198 200 203 204 206 207 207 204 203 202 200 199 196 202 196 197 199 192
196 198 194 195 198 197 200 202 205 208 207 207 201 204 199 196 199 203 199 200 202 204 203 207 207 208 207 209 211 212 214 215 213 211 211 209 206 204 205 205 202 197 192
196 199 198 201 201 199 200 199 201 202 204 205 206 210 213 208 207 208 211 213 215 218 216 214 216 215 216 216 217 217 217 217 219 216 215 214 212 208 213 207 207 203 209
201 199 199 201 202 203 201 202 202 204 205 206 208 214 214 214 216 218 219 217 217 224 225 225 224 222 222 222 220 219 221 221 222 220 219 219 217 216 214 208 209 215 221
200 202 204 198 203 206 205 205 204 206 209 210 211 213 216 215 215 219 223 225 225 225 228 228 229 228 227 225 224 224 224 224 224 225 223 222 220 218 212 209 217 230 217
200 199 202 203 204 205 206 207 209 209 211 212 213 216 225 225 217 221 222 226 225 227 228 230 230 229 230 229 228 228 228 228 228 228 227 226 225 222 216 216 223 223 209
203 199 202 203 207 209 207 206 209 212 215 215 213 213 221 221 218 219 224 225 228 225 225 225 229 229 228 229 228 230 232 233 234 233 231 228 226 224 216 222 230 221 220
208 203 204 202 206 211 211 210 212 213 213 216 218 218 224 226 225 223 225 226 226 229 229 227 226 227 229 228 229 229 231 233 232 232 233 234 227 226 220 225 221 211 216
211 211 206 206 204 208 214 216 217 219 221 220 220 222 225 230 231 230 225 226 229 230 232 232 230 230 229 226 229 232 239 245 247 242 237 235 226 228 230 231 228 222 214
211 214 210 207 204 201 207 217 226 230 229 228 223 227 229 228 232 232 228 225 226 229 235 236 236 237 238 240 240 241 245 250 251 251 249 247 236 218 221 223 222 223 210